Flag for France Weather past 2 weeks in Bastia, Corsica, France

Now
81 °F

Passing clouds.


Feels Like: 81 °F
Forecast: 66 / 75 °F
Wind: 16 mph from North

Location: Bastia Airport

Current Time: Sep 2, 2014 at 1:51:39 PM

Latest Report: Sep 2, 2014 at 1:00 PM


Visibility: N/A

Pressure: 29.77 "Hg

Humidity: 45%

Dew point: 57 °F

Location of BastiaLocation

Historic Weather in Bastia — Graph

°F

Bastia temperature yesterday

Maximum temperature yesterday: 81 °F (at 2:37 PM)
Minimum temperature yesterday: 63 °F (at 6:00 AM)
Average temperature yesterday: 73 °F

Past Weeks' High & Low Weather Summary

 TemperatureHumidityPressure
High88 °F (Aug 27, 11:30 AM)94% (Aug 19, 11:00 PM)30.04 "Hg (Aug 19, 11:00 PM)
Low63 °F (Aug 19, 6:00 AM)26% (Sep 1, 5:30 PM)29.62 "Hg (Sep 1, 5:30 AM)
Average73 °F70%29.92 "Hg
* Reported Aug 18 12:00 Noon — Sep 2 12:30 PM, Bastia, Weather by CustomWeather, © 2014

Note: Actual official high and low records may vary slightly from our data, if they occured in-between our weather recording intervals... More about our weather records

Advertising

Bastia weather history for previous 24 hours

 ConditionsComfort  
Time TempWeatherWind HumidityBarometerVisibility
12:30 PM
Sep 2
82 °FPassing clouds.13 mph40%29.77 "HgN/A
12:00 PM82 °FPassing clouds.13 mph32%29.80 "HgN/A
11:30 AM82 °FPassing clouds.8 mph35%29.80 "HgN/A
11:00 AM81 °FPassing clouds.10 mph32%29.80 "HgN/A
10:30 AM81 °FSunny.2 mph32%29.80 "Hg10 mi
10:00 AM79 °FSunny.10 mph39%29.80 "Hg10 mi
9:34 AM79 °FPassing clouds.7 mph39%29.80 "HgN/A
9:00 AM75 °FPassing clouds.3 mph44%29.80 "HgN/A
8:30 AM72 °FSunny.No wind47%29.80 "Hg10 mi
8:00 AM68 °FPassing clouds.6 mph53%29.80 "HgN/A
7:30 AM66 °FClear.6 mph56%29.80 "Hg10 mi
7:00 AM63 °FClear.7 mph59%29.80 "Hg10 mi
6:30 AM64 °FClear.3 mph56%29.80 "Hg10 mi
6:00 AM66 °FClear.6 mph52%29.77 "Hg10 mi
5:30 AM66 °FClear.8 mph52%29.80 "Hg10 mi
5:00 AM66 °FClear.6 mph52%29.80 "Hg10 mi
4:30 AM66 °FPassing clouds.3 mph52%29.80 "HgN/A
3:30 AM66 °FClear.3 mph60%29.80 "Hg10 mi
3:00 AM70 °FClear.3 mph57%29.80 "HgN/A
2:30 AM72 °FClear.8 mph50%29.80 "HgN/A
2:00 AM73 °FClear.12 mph47%29.80 "HgN/A
1:30 AM73 °FClear.9 mph47%29.80 "HgN/A
1:00 AM73 °FClear.8 mph47%29.80 "HgN/A
12:30 AM73 °FClear.10 mph47%29.80 "Hg10 mi
12:00 AM73 °FPassing clouds.8 mph47%29.80 "HgN/A
11:30 PM
Sep 1
70 °FPassing clouds.7 mph53%29.80 "HgN/A
11:00 PM72 °FPassing clouds.8 mph50%29.80 "HgN/A
10:38 PM72 °FPassing clouds.5 mph50%29.80 "HgN/A
10:00 PM73 °FPassing clouds.9 mph44%29.80 "HgN/A
9:39 PM73 °FPassing clouds.10 mph44%29.80 "HgN/A
9:00 PM75 °FPassing clouds.10 mph41%29.80 "HgN/A
8:30 PM75 °FPassing clouds.14 mph41%29.77 "HgN/A
8:00 PM75 °FPassing clouds.13 mph41%29.77 "HgN/A
7:30 PM75 °FPassing clouds.12 mph39%29.74 "HgN/A
7:00 PM77 °FPassing clouds.15 mph39%29.74 "HgN/A
6:30 PM79 °FPassing clouds.16 mph37%29.74 "HgN/A
6:00 PM79 °FPassing clouds.17 mph34%29.74 "HgN/A
5:30 PM81 °FPassing clouds.18 mph26%29.74 "HgN/A
5:00 PM81 °FPassing clouds.20 mph30%29.74 "HgN/A
4:30 PM81 °FPassing clouds.18 mph30%29.74 "HgN/A
4:08 PM81 °FPassing clouds.22 mph30%29.74 "HgN/A
3:30 PM81 °FPassing clouds.22 mph28%29.74 "HgN/A
3:00 PM81 °FPassing clouds.20 mph32%29.71 "HgN/A
2:37 PM81 °FPassing clouds.17 mph37%29.74 "HgN/A
2:04 PM79 °FPassing clouds.10 mph51%29.74 "HgN/A
1:30 PM77 °FPassing clouds.9 mph57%29.74 "HgN/A
1:00 PM77 °FScattered clouds.9 mph57%29.74 "HgN/A
Weather by CustomWeather, © 2014

See weather overviewHow to use our weather pages